Simultaneous Nadir Overpasses (SNOs) Predictions

Prediction of SNOs between LANDSAT-8 and METOP-A Satellite Orbit:

Table of predicted SNOs for the next 14.0 days since TLE Epoch: 6/25/2016
Index Date (LANDSAT-8) Time (LANDSAT-8) Lat,Lon (LANDSAT-8) SZA (LANDSAT-8 ) Date (METOP-A) Time (METOP-A) Lat,Lon (METOP-A) SZA (METOP-A ) Distance(km) Time Diff (sec)
1 06/25/2016 17:05:56 81.17, -35.69 60.00 06/25/2016 17:05:46 81.17, -35.70 59.99 0.29 10
2 06/25/2016 17:55:22 -81.19, 132.25 119.96 06/25/2016 17:56:25 -81.19, 132.27 119.93 0.53 63
3 06/28/2016 12:40:12 81.17, 30.69 60.09 06/28/2016 12:40:07 81.17, 30.62 60.08 1.18 5
4 06/28/2016 13:29:38 -81.19,-161.35 119.86 06/28/2016 13:30:46 -81.19,-161.36 119.83 0.44 68
5 07/01/2016 07:25:03 -81.16, -70.67 119.78 07/01/2016 07:23:49 -81.16, -70.64 119.81 0.56 74
6
